[[{"header":{"parameterUnit":"m.s-1","parameterCategory":1,"la1":30.2991,"la2":30.254,"lo1":-89.0895,"lo2":-89.0444,"dy":0.0017,"dx":0.0017,"nx":28,"ny":28,"refTime":"2023-10-20T21:00:00:Z","depth":0,"parameterNumber":2,"parameterNumberName":"U-component_of_WINDS"},"data":[0,0,0,0,0,0,0,0,0,0,0,0,0,0,0,0,0,0,0,0,0,0,0,0,0,0,0,0,0,0,0,0,0,0,0,0,0,0,0,0,0,0,0,0,0,0,0,0,0,0,0,0,0,0,0,0,0,0,0.4011,0.4011,0,0.4008,0.4008,0.4008,0.3946,0.3944,0.3942,0.3941,0.394,0.3941,0.3943,0,0,0,0,0,0,0,0,0,0,0,0,0,0.3963,0.3964,0.4011,0.4011,0.4011,0.4008,0.4008,0.4008,0.3946,0.3944,0.3942,0.394,0.3939,0.3941,0.3943,0,0,0,0,0,0,0,0,0,0,0,0,0,0.3975,0.3965,0.4011,0.3979,0.3976,0.4008,0.4008,0.4008,0.3946,0.3944,0.3941,0.3939,0.3939,0.3941,0.3943,0.4005,0,0,0.395,0.3951,0,0,0,0,0,0,0,0,0.3974,0.3976,0.3984,0.3981,0.3978,0.3975,0.3991,0.4007,0.3947,0.3958,0.3941,0.3938,0.3954,0.3954,0.3959,0.4005,0.4005,0.395,0.3952,0.3952,0.3953,0,0,0,0,0,0,0,0.3973,0.3976,0.401,0.3984,0.3981,0.3966,0.3965,0.3994,0.3969,0.3957,0.3952,0.3953,0.3952,0.3957,0.3959,0.4005,0.395,0.3952,0.3953,0.3954,0.4103,0.4106,0,0,0,0,0,0,0.3977,0.3976,0.401,0.401,0.397,0.3969,0.3967,0.3978,0.3969,0.3965,0.3955,0.395,0.3955,0.3956,0.3959,0.4032,0.3952,0.3955,0.3956,0.41,0.4104,0.4106,0,0,0,0,0,0,0.3976,0.398,0.401,0.3992,0.3994,0.3972,0.3985,0.398,0.3985,0.3967,0.3963,0.3965,0.3953,0.3955,0.3994,0.4031,0.3956,0.3958,0.4097,0.4101,0.4105,0.4179,0,0,0,0,0,0,0.3975,0.398,0.4004,0.3993,0.3995,0.4046,0.3987,0.3981,0.3989,0.3982,0.3976,0.3972,0.3951,0.3991,0.3997,0.4033,0.3959,0.4094,0.4099,0.4104,0.4173,0.4185,0.4195,0,0,0,0,0,0.3973,0.4025,0.4005,0.401,0.4024,0.4048,0.4049,0.4024,0.3992,0.4016,0.4004,0.3973,0.4026,0.3996,0.4001,0.4039,0.4092,0.4098,0.4103,0.4168,0.4183,0.4195,0,0,0,0,0,0,0.4041,0.4023,0.4001,0.405,0.4051,0.4037,0.4066,0.4039,0.405,0.4043,0.4011,0.401,0.4055,0.405,0.4017,0.4099,0.4053,0.406,0.4101,0.4114,0.4125,0.4126,0.3961,0,0,0,0,0,0.4062,0.4082,0.4065,0.411,0.4111,0.4089,0.4098,0.4078,0.4078,0.4078,0.407,0.4071,0.4088,0.41,0.4115,0.4171,0.417,0.4199,0.421,0.4219,0.4227,0.4258,0.4271,0.4126,0.4126,0.4126,0,0,0.4105,0.4097,0.4112,0.4123,0.4122,0.4145,0.409,0.4116,0.4133,0.4082,0.4119,0.4113,0.4112,0.4161,0.4181,0.4158,0.4266,0.4227,0.4234,0.4237,0.4265,0.4279,0.4291,0.413,0.4129,0.4128,0,0,0.4196,0.4191,0.4229,0.4228,0.4226,0.421,0.422,0.421,0.4204,0.4239,0.4202,0.4222,0.4251,0.4253,0.4258,0.4349,0.4321,0.4354,0.4412,0.4442,0.4454,0.4464,0.4498,0.4511,0.4361,0.4361,0.4361,0,0.425,0.4282,0.4252,0.4281,0.4287,0.4241,0.428,0.4281,0.4284,0.429,0.4263,0.43,0.4296,0.4345,0.4367,0.4372,0.4382,0.4356,0.4455,0.4464,0.4473,0.4506,0.4519,0.4365,0.4365,0.4364,0.4364,0,0.435,0.4373,0.4404,0.4408,0.4417,0.4451,0.4426,0.4439,0.4418,0.4405,0.4443,0.4437,0.445,0.4459,0.4439,0.4505,0.4491,0.446,0.4414,0.4492,0.4522,0.4534,0.4371,0.437,0.4369,0.4368,0,0,0.4486,0.4472,0.4484,0.4485,0.4479,0.4497,0.4528,0.4541,0.4554,0.4557,0.4584,0.4609,0.458,0.4586,0.4565,0.4591,0.4666,0.4557,0.4556,0.4579,0.4741,0.4767,0.4781,0.4646,0.4648,0.465,0.4742,0,0.4575,0.4629,0.4602,0.4659,0.468,0.4637,0.4664,0.4664,0.4653,0.467,0.4657,0.4677,0.4636,0.4639,0.4663,0.4652,0.4698,0.4644,0.4672,0.4674,0.4677,0.4797,0.4824,0.4911,0.4753,0.4755,0.4756,0,0.4688,0.4696,0.4755,0.4745,0.4753,0.4779,0.4788,0.4804,0.4803,0.4793,0.4799,0.4771,0.4802,0.4755,0.4798,0.4762,0.4771,0.4767,0.477,0.4774,0.4722,0.4806,0.4938,0.4952,0.4774,0.4773,0.4771,0,0.4784,0.4809,0.4848,0.485,0.4839,0.4859,0.4855,0.4851,0.486,0.4868,0.4874,0.4886,0.4893,0.4902,0.4879,0.4846,0.4926,0.4876,0.492,0.4921,0.4941,0.4941,0.5079,0.4943,0.4943,0.4943,0.4942,0,0.4888,0.4927,0.4891,0.4916,0.4958,0.4926,0.4968,0.496,0.4957,0.4979,0.4941,0.4963,0.493,0.4948,0.493,0.497,0.4972,0.4966,0.4962,0.4971,0.4973,0.4979,0.4974,0.4946,0.4945,0.4945,0.4944,0,0.5004,0.4981,0.5021,0.5007,0.5005,0.5037,0.5025,0.5047,0.5032,0.5062,0.5066,0.5044,0.5064,0.5041,0.5059,0.5047,0.5101,0.5086,0.5102,0.5099,0.5145,0.5142,0.5295,0.5314,0.5163,0.5165,0.5166,0,0.5074,0.5102,0.5091,0.5104,0.5102,0.5122,0.5131,0.51,0.5111,0.5112,0.5135,0.5151,0.5164,0.5198,0.5184,0.5198,0.5184,0.5237,0.5186,0.5196,0.5188,0.5188,0.5191,0.5248,0.525,0.5251,0.5252,0,0.5201,0.5188,0.5202,0.5213,0.5225,0.5232,0.5236,0.5248,0.5216,0.523,0.525,0.526,0.5278,0.5296,0.5306,0.5302,0.5273,0.5268,0.5279,0.5291,0.53,0.5298,0.5133,0.5265,0.5264,0.5263,0.5262,0.5262,0.5297,0.5321,0.5317,0.5335,0.5334,0.5339,0.536,0.5347,0.5363,0.5376,0.5356,0.5382,0.538,0.539,0.539,0.541,0.5387,0.5403,0.5408,0.5413,0.5421,0.5295,0.5411,0.5411,0.541,0.541,0.5409,0,0.5424,0.5419,0.5435,0.5442,0.5456,0.5425,0.5428,0.5442,0.5465,0.5465,0.5478,0.5501,0.5518,0.5504,0.5519,0.5537,0.5524,0.5542,0.5542,0.5542,0.5439,0.5429,0.5553,0.5553,0.5553,0.5553,0.5553,0.5553,0.5492,0.5531,0.5518,0.5557,0.5551,0.5576,0.5581,0.5585,0.5585,0.5613,0.5627,0.5617,0.5612,0.5626,0.564,0.5636,0.5644,0.5668,0.5659,0.5563,0.5549,0.5536,0.5527,0.5669,0.5669,0.5761,0.5761,0.5762]},{"header":{"parameterUnit":"m.s-1","parameterCategory":1,"la1":30.2991,"la2":30.254,"lo1":-89.0895,"lo2":-89.0444,"dy":0.0017,"dx":0.0017,"nx":28,"ny":28,"refTime":"2023-10-20T21:00:00:Z","depth":0,"parameterNumber":3,"parameterNumberName":"V-component_of_WINDS"},"data":[0,0,0,0,0,0,0,0,0,0,0,0,0,0,0,0,0,0,0,0,0,0,0,0,0,0,0,0,0,0,0,0,0,0,0,0,0,0,0,0,0,0,0,0,0,0,0,0,0,0,0,0,0,0,0,0,0,0,0.6067,0.6067,0,0.6076,0.6076,0.6076,0.6037,0.6036,0.6035,0.6034,0.6041,0.6043,0.6044,0,0,0,0,0,0,0,0,0,0,0,0,0,0.6014,0.6016,0.6067,0.6067,0.6067,0.6076,0.6076,0.6076,0.6037,0.6036,0.6034,0.6033,0.6041,0.6042,0.6044,0,0,0,0,0,0,0,0,0,0,0,0,0,0.6032,0.6016,0.6067,0.6049,0.6047,0.6076,0.6076,0.6076,0.6037,0.6036,0.6034,0.6032,0.604,0.6042,0.6044,0.609,0,0,0.605,0.6051,0,0,0,0,0,0,0,0,0.6031,0.6034,0.6051,0.605,0.6048,0.6053,0.606,0.608,0.6038,0.6041,0.6034,0.6032,0.6047,0.6048,0.6053,0.609,0.609,0.605,0.6051,0.6052,0.6053,0,0,0,0,0,0,0,0.603,0.6033,0.607,0.6051,0.605,0.604,0.604,0.6064,0.6053,0.6041,0.6038,0.604,0.6045,0.6052,0.6053,0.6091,0.605,0.6052,0.6053,0.6054,0.6166,0.6168,0,0,0,0,0,0,0.6031,0.6032,0.607,0.607,0.6035,0.6042,0.6043,0.6053,0.6053,0.6051,0.6041,0.6038,0.6049,0.6051,0.6053,0.6108,0.6052,0.6054,0.6055,0.6165,0.6167,0.6169,0,0,0,0,0,0,0.603,0.6035,0.6069,0.6051,0.6054,0.6045,0.6057,0.6055,0.6061,0.6053,0.6051,0.6049,0.6048,0.6051,0.6081,0.6108,0.6055,0.6056,0.6162,0.6165,0.6168,0.6217,0,0,0,0,0,0,0.6029,0.6035,0.6052,0.6051,0.6055,0.6098,0.6059,0.6056,0.6064,0.606,0.606,0.6059,0.6047,0.6079,0.6083,0.6109,0.6058,0.616,0.6164,0.6167,0.6213,0.6221,0.6228,0,0,0,0,0,0.6027,0.6065,0.6053,0.6058,0.6077,0.61,0.6102,0.6088,0.6066,0.6084,0.6079,0.6059,0.6104,0.6082,0.6087,0.6114,0.6158,0.6163,0.6167,0.621,0.622,0.6228,0,0,0,0,0,0,0.6069,0.6065,0.6052,0.6091,0.6096,0.6093,0.6115,0.6099,0.6109,0.6105,0.6086,0.6087,0.6121,0.612,0.6096,0.6159,0.6127,0.6133,0.6158,0.6168,0.6175,0.6175,0.6059,0,0,0,0,0,0.6082,0.6101,0.6096,0.6131,0.6135,0.6124,0.6134,0.6122,0.6127,0.6129,0.6126,0.6131,0.6146,0.6156,0.617,0.6212,0.6212,0.6233,0.624,0.6247,0.6252,0.6275,0.6285,0.6183,0.6183,0.6183,0,0,0.6111,0.6111,0.6124,0.614,0.6143,0.6163,0.6127,0.6149,0.6163,0.6132,0.6161,0.616,0.6163,0.6201,0.6217,0.6201,0.628,0.6252,0.6257,0.6259,0.6281,0.6291,0.6299,0.6186,0.6185,0.6185,0,0,0.6174,0.6175,0.6205,0.6209,0.6214,0.6207,0.6214,0.6214,0.6212,0.6241,0.6218,0.6235,0.6261,0.6265,0.6271,0.6336,0.6318,0.634,0.638,0.6403,0.6411,0.6418,0.6443,0.6452,0.6345,0.6345,0.6345,0,0.6209,0.6238,0.6223,0.6247,0.6255,0.6228,0.6258,0.6262,0.6271,0.6277,0.6259,0.6292,0.6292,0.6331,0.6347,0.6352,0.636,0.6341,0.6411,0.6418,0.6425,0.6448,0.6457,0.6348,0.6348,0.6348,0.6347,0,0.6282,0.6303,0.6326,0.6337,0.6347,0.6374,0.6362,0.6374,0.6362,0.6357,0.6387,0.6387,0.64,0.6408,0.6396,0.6445,0.6435,0.6415,0.6383,0.6438,0.6459,0.6468,0.6352,0.6351,0.635,0.635,0,0,0.6372,0.6374,0.6383,0.6387,0.6391,0.6407,0.6432,0.6446,0.6458,0.6464,0.6486,0.6509,0.649,0.6497,0.6484,0.6504,0.6558,0.6481,0.6481,0.6497,0.6613,0.663,0.664,0.6545,0.6546,0.6548,0.6613,0,0.6435,0.648,0.6467,0.6512,0.6532,0.6506,0.6528,0.6533,0.6529,0.6544,0.6539,0.6556,0.6529,0.6533,0.6552,0.6547,0.6581,0.6542,0.6566,0.6567,0.6567,0.6651,0.6669,0.6731,0.6621,0.6623,0.6624,0,0.6514,0.6526,0.6574,0.6575,0.6582,0.6603,0.6615,0.663,0.6634,0.663,0.6637,0.6621,0.6647,0.6614,0.6649,0.6623,0.6631,0.6631,0.6633,0.6636,0.66,0.6658,0.675,0.676,0.6637,0.6636,0.6635,0,0.6577,0.6604,0.6637,0.6641,0.6643,0.6658,0.6659,0.6662,0.6672,0.6682,0.6688,0.6701,0.6708,0.6718,0.6706,0.6683,0.6743,0.6709,0.6741,0.6741,0.6756,0.6755,0.6852,0.6758,0.6758,0.6758,0.6758,0,0.665,0.6681,0.6665,0.6685,0.6719,0.6703,0.6736,0.6734,0.6737,0.6756,0.6734,0.6752,0.6734,0.6751,0.6741,0.6772,0.6775,0.6772,0.677,0.6776,0.6776,0.6782,0.6778,0.6761,0.676,0.676,0.6759,0,0.6727,0.6717,0.6751,0.675,0.6751,0.6776,0.6775,0.6793,0.6787,0.6812,0.6816,0.6807,0.6825,0.6814,0.6832,0.6826,0.6867,0.6857,0.6866,0.6864,0.6897,0.6895,0.7002,0.7016,0.6912,0.6913,0.6914,0,0.6775,0.6798,0.68,0.6811,0.6814,0.6833,0.6843,0.6828,0.6839,0.6846,0.6864,0.688,0.6893,0.6924,0.6919,0.6933,0.6924,0.6961,0.6926,0.6932,0.6927,0.6927,0.6929,0.6969,0.697,0.6971,0.6972,0,0.6861,0.6856,0.6871,0.6885,0.6898,0.6908,0.6917,0.6927,0.6912,0.6925,0.6945,0.6955,0.6974,0.6991,0.7003,0.7004,0.6986,0.6982,0.6991,0.6998,0.7003,0.7002,0.6887,0.698,0.698,0.6979,0.6978,0.6978,0.6926,0.6946,0.6951,0.6969,0.6974,0.6982,0.7,0.6996,0.7012,0.7028,0.7017,0.704,0.7044,0.7058,0.7061,0.7079,0.7064,0.7076,0.7079,0.7083,0.7088,0.6998,0.7081,0.7081,0.708,0.708,0.708,0,0.7013,0.7015,0.7032,0.7045,0.7059,0.7041,0.7049,0.7062,0.7083,0.7089,0.7102,0.7124,0.7141,0.7137,0.7152,0.7167,0.7159,0.7171,0.7171,0.7172,0.71,0.7092,0.7177,0.7177,0.7177,0.7177,0.7177,0.7177,0.706,0.7093,0.7088,0.7124,0.7125,0.7148,0.7154,0.7162,0.7167,0.7193,0.7207,0.7204,0.7206,0.7221,0.7236,0.7234,0.7241,0.7257,0.7253,0.7186,0.7176,0.7167,0.716,0.7258,0.7258,0.7323,0.7324,0.7324]}]]